K5GHS-1 Weather Reports


Display with metric or nautical units.
time (UTC)temp
F
wind
direction
speed
MPH
gust
MPH
rain 1hr
in
rain 24hr
in
rain mn
in
humidity
%
barometer
mb
20260905212057 102 98 1.0 6.0 0.00 0.00 0.00 37 1009.7
20260905211552 101 110 1.0 1.0 0.00 0.00 0.00 38 1010.1
20260905211047 99 75 0.0 1.0 0.00 0.00 0.00 39 1009.9
20260905210543 100 72 0.0 2.0 0.00 0.00 0.00 40 1010.2
20260905210038 100 72 1.0 2.0 0.00 0.00 0.00 40 1010.0
20260905205537 100 82 3.0 5.0 0.00 0.00 0.00 41 1009.9
20260905205037 102 79 0.0 1.0 0.00 0.00 0.00 39 1010.3
20260905204532 100 66 1.0 1.0 0.00 0.00 0.00 40 1010.3
20260905204027 101 86 0.0 2.0 0.00 0.00 0.00 40 1010.5
20260905203526 101 58 0.0 2.0 0.00 0.00 0.00 40 1010.4
20260905203022 101 113 1.0 2.0 0.00 0.00 0.00 40 1010.6
20260905202517 100 75 1.0 3.0 0.00 0.00 0.00 41 1010.5
20260905202013 100 66 0.0 1.0 0.00 0.00 0.00 41 1010.7
20260905201508 100 68 1.0 3.0 0.00 0.00 0.00 41 1010.8
20260905201008 100 54 1.0 2.0 0.00 0.00 0.00 40 1010.9
20260905200504 101 85 3.0 5.0 0.00 0.00 0.00 39 1010.9
20260905200003 100 75 0.0 2.0 0.00 0.00 0.00 40 1010.9
20260905195457 100 86 0.0 1.0 0.00 0.00 0.00 40 1011.1
20260905194952 99 91 0.0 1.0 0.00 0.00 0.00 41 1011.1
20260905194452 99 128 2.0 6.0 0.00 0.00 0.00 42 1011.2
20260905193947 99 75 1.0 1.0 0.00 0.00 0.00 42 1011.2
20260905193447 98 79 0.0 2.0 0.00 0.00 0.00 42 1011.3
20260905192942 98 100 1.0 2.0 0.00 0.00 0.00 43 1011.4
20260905192437 99 81 0.0 2.0 0.00 0.00 0.00 42 1011.7
20260905191932 98 98 1.0 5.0 0.00 0.00 0.00 43 1011.8
20260905191431 99 81 0.0 2.0 0.00 0.00 0.00 43 1011.6
20260905190926 98 49 1.0 2.0 0.00 0.00 0.00 44 1011.8
20260905190423 98 255 1.0 2.0 0.00 0.00 0.00 44 1011.7
20260905185922 98 111 3.0 3.0 0.00 0.00 0.00 44 1012.2
20260905185418 98 97 0.0 1.0 0.00 0.00 0.00 45 1012.1
20260905184916 97 68 1.0 1.0 0.00 0.00 0.00 46 1012.1
20260905184411 97 99 1.0 6.0 0.00 0.00 0.00 47 1012.2
20260905183909 97 84 1.0 2.0 0.00 0.00 0.00 47 1012.3
20260905183405 97 122 3.0 6.0 0.00 0.00 0.00 47 1012.2
20260905182900 97 101 2.0 5.0 0.00 0.00 0.00 48 1012.6
20260905182359 98 66 1.0 2.0 0.00 0.00 0.00 47 1012.6
20260905181855 98 73 0.0 1.0 0.00 0.00 0.00 47 1012.5
20260905181355 97 77 0.0 3.0 0.00 0.00 0.00 47 1012.5
20260905180854 97 67 0.0 3.0 0.00 0.00 0.00 48 1012.4
20260905180349 96 63 0.0 1.0 0.00 0.00 0.00 48 1012.8
20260905175843 95 76 0.0 2.0 0.00 0.00 0.00 49 1012.7
20260905175338 97 81 0.0 1.0 0.00 0.00 0.00 47 1013.0
20260905174833 96 162 1.0 1.0 0.00 0.00 0.00 47 1013.0
20260905174329 96 72 0.0 1.0 0.00 0.00 0.00 49 1013.1
20260905173824 96 92 3.0 5.0 0.00 0.00 0.00 49 1013.0
20260905173321 97 75 2.0 2.0 0.00 0.00 0.00 47 1013.4
20260905172821 96 206 1.0 3.0 0.00 0.00 0.00 49 1013.3
20260905172318 96 72 0.0 0.0 0.00 0.00 0.00 50 1013.2
20260905171815 95 67 0.0 1.0 0.00 0.00 0.00 51 1013.3
20260905171311 95 67 1.0 1.0 0.00 0.00 0.00 51 1013.6
20260905170807 95 97 2.0 3.0 0.00 0.00 0.00 50 1013.4
20260905170303 95 65 0.0 1.0 0.00 0.00 0.00 50 1013.4
20260905165802 95 63 0.0 2.0 0.00 0.00 0.00 52 1013.5
20260905165258 96 122 1.0 2.0 0.00 0.00 0.00 51 1013.7
20260905164757 96 66 1.0 1.0 0.00 0.00 0.00 50 1013.7
20260905164252 97 125 2.0 3.0 0.00 0.00 0.00 49 1013.6
20260905163748 96 94 0.0 0.0 0.00 0.00 0.00 49 1013.6
20260905163244 95 78 0.0 1.0 0.00 0.00 0.00 50 1013.5
20260905162740 95 67 0.0 1.0 0.00 0.00 0.00 51 1013.6
20260905162239 95 101 1.0 1.0 0.00 0.00 0.00 51 1013.7
20260905161734 94 73 0.0 5.0 0.00 0.00 0.00 54 1013.7
20260905161232 94 183 1.0 2.0 0.00 0.00 0.00 54 1013.5
20260905160726 94 76 0.0 1.0 0.00 0.00 0.00 54 1013.6
20260905160226 94 55 0.0 2.0 0.00 0.00 0.00 54 1013.5
20260905155720 93 72 0.0 1.0 0.00 0.00 0.00 54 1013.7
20260905155219 93 74 1.0 2.0 0.00 0.00 0.00 55 1013.7
20260905154713 94 73 0.0 1.0 0.00 0.00 0.00 54 1013.7
20260905154209 93 54 0.0 1.0 0.00 0.00 0.00 57 1013.5
20260905153705 92 63 1.0 2.0 0.00 0.00 0.00 57 1013.8
20260905153200 91 65 0.0 1.0 0.00 0.00 0.00 59 1013.6
20260905152649 91 68 0.0 3.0 0.00 0.00 0.00 60 1013.6
20260905152144 92 61 0.0 2.0 0.00 0.00 0.00 58 1013.6
20260905151639 91 70 1.0 2.0 0.00 0.00 0.00 60 1013.6
20260905151134 90 118 0.0 1.0 0.00 0.00 0.00 61 1013.3
20260905150629 90 68 2.0 3.0 0.00 0.00 0.00 62 1013.5
20260905150127 90 206 1.0 3.0 0.00 0.00 0.00 61 1013.4
20260905145626 89 69 0.0 2.0 0.00 0.00 0.00 64 1013.5
20260905145125 89 189 2.0 3.0 0.00 0.00 0.00 64 1013.6
20260905144620 90 67 0.0 2.0 0.00 0.00 0.00 64 1013.5
20260905144120 89 80 0.0 3.0 0.00 0.00 0.00 64 1013.4
20260905143614 89 63 0.0 2.0 0.00 0.00 0.00 65 1013.5
20260905143109 88 184 1.0 2.0 0.00 0.00 0.00 65 1013.4
20260905142607 88 64 0.0 1.0 0.00 0.00 0.00 66 1013.5
20260905142102 89 99 1.0 1.0 0.00 0.00 0.00 64 1013.4
20260905141602 89 72 0.0 2.0 0.00 0.00 0.00 66 1013.2
20260905141058 88 88 0.0 1.0 0.00 0.00 0.00 65 1013.3
20260905140553 88 80 0.0 0.0 0.00 0.00 0.00 67 1013.2
20260905140052 86 121 1.0 2.0 0.00 0.00 0.00 69 1013.3
20260905135548 86 92 0.0 1.0 0.00 0.00 0.00 69 1013.4
20260905135048 86 76 0.0 1.0 0.00 0.00 0.00 71 1013.3
20260905134543 85 71 0.0 0.0 0.00 0.00 0.00 72 1013.3
20260905134041 84 68 0.0 1.0 0.00 0.00 0.00 73 1013.4
20260905133537 83 100 0.0 1.0 0.00 0.00 0.00 74 1013.2
20260905133037 83 74 0.0 0.0 0.00 0.00 0.00 75 1013.2
20260905132537 83 72 0.0 1.0 0.00 0.00 0.00 76 1013.2
20260905132031 82 71 0.0 0.0 0.00 0.00 0.00 77 1013.3
20260905131527 82 69 0.0 2.0 0.00 0.00 0.00 77 1013.3
20260905131022 82 116 0.0 1.0 0.00 0.00 0.00 78 1013.0
20260905130521 81 79 0.0 1.0 0.00 0.00 0.00 78 1013.0
20260905130017 81 73 0.0 1.0 0.00 0.00 0.00 80 1013.0
20260905125516 80 74 0.0 2.0 0.00 0.00 0.00 80 1012.8
20260905125012 79 71 0.0 0.0 0.00 0.00 0.00 81 1012.6
20260905124508 79 70 0.0 0.0 0.00 0.00 0.00 81 1012.6
20260905124004 80 70 0.0 0.0 0.00 0.00 0.00 81 1012.6
20260905123459 79 71 0.0 0.0 0.00 0.00 0.00 81 1012.5
20260905122955 79 72 0.0 0.0 0.00 0.00 0.00 81 1012.4
20260905122449 79 70 0.0 0.0 0.00 0.00 0.00 81 1012.5
20260905121944 79 70 0.0 0.0 0.00 0.00 0.00 81 1012.4
20260905121440 79 73 0.0 0.0 0.00 0.00 0.00 81 1012.3
20260905120939 79 72 0.0 0.0 0.00 0.00 0.00 81 1012.0
20260905120433 79 71 0.0 0.0 0.00 0.00 0.00 81 1012.2
20260905115928 79 75 0.0 0.0 0.00 0.00 0.00 81 1012.2
20260905115428 79 73 0.0 0.0 0.00 0.00 0.00 81 1012.5
20260905114923 79 72 0.0 0.0 0.00 0.00 0.00 80 1012.2
20260905114423 79 74 0.0 0.0 0.00 0.00 0.00 80 1012.1
20260905113921 79 72 0.0 0.0 0.00 0.00 0.00 80 1012.2
20260905113417 79 72 0.0 0.0 0.00 0.00 0.00 80 1012.2
20260905112913 79 71 0.0 0.0 0.00 0.00 0.00 80 1012.3
20260905112408 79 72 0.0 0.0 0.00 0.00 0.00 79 1012.2
20260905111902 79 73 0.0 0.0 0.00 0.00 0.00 80 1012.1
20260905111356 79 75 0.0 0.0 0.00 0.00 0.00 80 1012.2
20260905110856 79 74 0.0 0.0 0.00 0.00 0.00 80 1012.2
20260905110350 79 74 0.0 0.0 0.00 0.00 0.00 79 1012.5
20260905105846 79 74 0.0 0.0 0.00 0.00 0.00 79 1012.3
20260905105344 79 74 0.0 0.0 0.00 0.00 0.00 79 1012.3
20260905104839 80 75 0.0 0.0 0.00 0.00 0.00 78 1012.3
20260905104336 80 73 0.0 0.0 0.00 0.00 0.00 78 1012.5
20260905103835 80 73 0.0 0.0 0.00 0.00 0.00 77 1012.5
20260905103330 80 73 0.0 0.0 0.00 0.00 0.00 77 1012.4
20260905102826 80 72 0.0 0.0 0.00 0.00 0.00 76 1012.4
20260905102323 81 72 0.0 0.0 0.00 0.00 0.00 76 1012.7
20260905101817 81 72 0.0 0.0 0.00 0.00 0.00 75 1012.5
20260905101315 81 72 0.0 0.0 0.00 0.00 0.00 75 1012.2
20260905100810 81 74 0.0 1.0 0.00 0.00 0.00 75 1012.1
20260905100305 81 77 0.0 1.0 0.00 0.00 0.00 75 1012.4
20260905095804 81 75 1.0 1.0 0.00 0.00 0.00 74 1012.2
20260905095259 82 72 0.0 0.0 0.00 0.00 0.00 74 1012.3
20260905094754 82 78 0.0 0.0 0.00 0.00 0.00 74 1012.2
20260905094250 82 78 0.0 0.0 0.00 0.00 0.00 74 1012.0
20260905093749 82 79 0.0 0.0 0.00 0.00 0.00 73 1012.1
20260905093244 82 73 0.0 1.0 0.00 0.00 0.00 73 1012.0
20260905092740 82 74 0.0 1.0 0.00 0.00 0.00 73 1012.0
20260905092235 82 54 0.0 0.0 0.00 0.00 0.00 73 1012.0
20260905091735 81 79 0.0 1.0 0.00 0.00 0.00 73 1012.1
20260905091230 81 74 0.0 0.0 0.00 0.00 0.00 73 1011.8
20260905090729 82 75 0.0 0.0 0.00 0.00 0.00 72 1012.0
20260905090225 82 73 0.0 0.0 0.00 0.00 0.00 72 1011.8
20260905085724 82 70 0.0 0.0 0.00 0.00 0.00 72 1011.9
20260905085218 82 72 0.0 0.0 0.00 0.00 0.00 71 1011.7
20260905084713 82 76 0.0 0.0 0.00 0.00 0.00 71 1011.7
20260905084213 83 77 0.0 0.0 0.00 0.00 0.00 70 1011.9
20260905083708 83 73 0.0 0.0 0.00 0.00 0.00 70 1011.8
20260905083204 83 49 0.0 1.0 0.00 0.00 0.00 69 1011.5
20260905082659 83 337 0.0 1.0 0.00 0.00 0.00 70 1011.7
20260905082154 82 73 0.0 0.0 0.00 0.00 0.00 71 1011.8
20260905081649 82 76 0.0 0.0 0.00 0.00 0.00 71 1011.7
20260905081145 82 67 0.0 1.0 0.00 0.00 0.00 72 1011.6
20260905080644 82 71 0.0 1.0 0.00 0.00 0.00 72 1011.7
20260905080143 82 70 0.0 0.0 0.00 0.00 0.00 72 1011.9
20260905075643 82 71 0.0 0.0 0.00 0.00 0.00 72 1011.7
20260905075142 82 80 0.0 0.0 0.00 0.00 0.00 72 1011.7
20260905074641 83 66 0.0 0.0 0.00 0.00 0.00 72 1011.7
20260905074137 83 71 0.0 0.0 0.00 0.00 0.00 71 1011.6
20260905073633 83 71 0.0 0.0 0.00 0.00 0.00 71 1012.0
20260905073128 83 68 0.0 0.0 0.00 0.00 0.00 71 1011.7
20260905072627 84 74 0.0 0.0 0.00 0.00 0.00 70 1011.9
20260905072123 84 71 0.0 0.0 0.00 0.00 0.00 70 1012.0
20260905071619 84 71 0.0 0.0 0.00 0.00 0.00 69 1011.9
20260905071115 84 71 0.0 0.0 0.00 0.00 0.00 69 1012.0
20260905070610 85 73 0.0 0.0 0.00 0.00 0.00 69 1012.1
20260905070106 85 71 0.0 0.0 0.00 0.00 0.00 69 1012.0
20260905065603 85 67 0.0 0.0 0.00 0.00 0.00 69 1012.1
20260905065058 85 67 0.0 1.0 0.00 0.00 0.00 68 1012.0
20260905064553 85 72 0.0 0.0 0.00 0.00 0.00 69 1012.1
20260905064049 85 69 0.0 0.0 0.00 0.00 0.00 68 1012.0
20260905063547 85 75 0.0 1.0 0.00 0.00 0.00 68 1012.0
20260905063044 85 78 0.0 0.0 0.00 0.00 0.00 68 1012.0
20260905062539 85 74 0.0 0.0 0.00 0.00 0.00 68 1012.2
20260905062033 85 72 0.0 0.0 0.00 0.00 0.00 69 1012.1
20260905061528 85 67 0.0 0.0 0.00 0.00 0.00 68 1012.2
20260905061027 85 86 0.0 0.0 0.00 0.00 0.00 68 1012.1
20260905060524 85 74 0.0 0.0 0.00 0.00 0.00 68 1012.0
20260905060019 85 70 0.0 0.0 0.00 0.00 0.00 67 1012.0
20260905055517 85 73 0.0 1.0 0.00 0.00 0.00 67 1012.0
20260905055012 86 72 0.0 0.0 0.00 0.00 0.00 66 1012.0
20260905054508 86 72 0.0 0.0 0.00 0.00 0.00 66 1011.9
20260905054004 86 71 0.0 2.0 0.00 0.00 0.00 66 1011.8
20260905053457 86 72 0.0 0.0 0.00 0.00 0.00 65 1012.1
20260905052953 86 81 0.0 1.0 0.00 0.00 0.00 65 1012.0
20260905052453 86 76 0.0 1.0 0.00 0.00 0.00 65 1011.8
20260905051952 86 81 0.0 1.0 0.00 0.00 0.00 65 1011.9
20260905051447 86 75 0.0 0.0 0.00 0.00 0.00 64 1011.9
20260905050945 86 82 0.0 0.0 0.00 0.00 0.00 64 1011.8
20260905050440 86 75 0.0 0.0 0.00 0.00 0.00 63 1011.6
20260905045937 87 76 0.0 0.0 0.00 0.00 0.00 63 1011.8
20260905045432 87 76 0.0 0.0 0.00 0.00 0.00 62 1011.8
20260905044927 87 75 0.0 0.0 0.00 0.00 0.00 62 1011.8
20260905044422 87 80 0.0 1.0 0.00 0.00 0.00 62 1011.8
20260905043921 87 74 0.0 0.0 0.00 0.00 0.00 62 1012.0
20260905043420 87 75 0.0 0.0 0.00 0.00 0.00 62 1011.8
20260905042915 87 84 0.0 1.0 0.00 0.00 0.00 62 1011.7
20260905042410 86 86 0.0 1.0 0.00 0.00 0.00 62 1012.0
20260905041905 86 78 0.0 0.0 0.00 0.00 0.00 63 1011.9
20260905041402 86 92 0.0 0.0 0.00 0.00 0.00 63 1011.8
20260905040901 86 74 0.0 0.0 0.00 0.00 0.00 63 1012.0
20260905040355 86 92 0.0 0.0 0.00 0.00 0.00 63 1011.7
20260905035854 86 86 0.0 0.0 0.00 0.00 0.00 63 1012.0
20260905035350 87 74 0.0 0.0 0.00 0.00 0.00 63 1011.7
20260905034846 87 73 0.0 0.0 0.00 0.00 0.00 63 1011.6
20260905034342 87 73 0.0 0.0 0.00 0.00 0.00 63 1011.8
20260905033840 87 79 0.0 0.0 0.00 0.00 0.00 63 1011.8
20260905033336 87 78 0.0 0.0 0.00 0.00 0.00 63 1011.6
20260905032835 87 73 0.0 0.0 0.00 0.00 0.00 63 1011.8
20260905032331 87 73 0.0 0.0 0.00 0.00 0.00 63 1011.8
20260905031826 87 73 0.0 0.0 0.00 0.00 0.00 62 1012.0
20260905031322 88 74 0.0 1.0 0.00 0.00 0.00 61 1011.6
20260905030816 88 91 1.0 1.0 0.00 0.00 0.00 61 1011.7
20260905030312 88 73 0.0 0.0 0.00 0.00 0.00 62 1011.6
20260905025811 88 72 0.0 1.0 0.00 0.00 0.00 61 1011.5
20260905025307 88 82 0.0 1.0 0.00 0.00 0.00 61 1011.4
20260905024803 88 88 0.0 1.0 0.00 0.00 0.00 61 1011.5
20260905024258 88 80 1.0 1.0 0.00 0.00 0.00 61 1011.5
20260905023753 88 73 0.0 0.0 0.00 0.00 0.00 61 1011.5
20260905023248 89 81 1.0 1.0 0.00 0.00 0.00 61 1011.4
20260905022747 89 79 0.0 0.0 0.00 0.00 0.00 61 1011.2
20260905022243 89 65 0.0 2.0 0.00 0.00 0.00 61 1011.2
20260905021743 89 73 0.0 1.0 0.00 0.00 0.00 60 1011.1
20260905021237 89 107 1.0 3.0 0.00 0.00 0.00 60 1011.1
20260905020732 89 84 1.0 2.0 0.00 0.00 0.00 59 1010.9
20260905020227 89 78 0.0 2.0 0.00 0.00 0.00 59 1010.8
20260905015726 90 101 0.0 2.0 0.00 0.00 0.00 59 1011.0
20260905015221 90 78 0.0 2.0 0.00 0.00 0.00 58 1010.9
20260905014720 90 72 1.0 1.0 0.00 0.00 0.00 58 1010.9
20260905014216 90 72 1.0 2.0 0.00 0.00 0.00 57 1010.6
20260905013711 90 41 1.0 2.0 0.00 0.00 0.00 57 1010.5
20260905013207 91 82 1.0 1.0 0.00 0.00 0.00 57 1010.5
20260905012702 91 107 0.0 2.0 0.00 0.00 0.00 57 1010.4
20260905012158 91 82 1.0 3.0 0.00 0.00 0.00 56 1010.7
20260905011654 91 79 1.0 6.0 0.00 0.00 0.00 56 1010.5
20260905011150 92 109 0.0 1.0 0.00 0.00 0.00 55 1010.5
20260905010644 92 81 0.0 3.0 0.00 0.00 0.00 55 1010.2
20260905010140 92 102 3.0 3.0 0.00 0.00 0.00 54 1010.3
20260905005636 92 71 2.0 2.0 0.00 0.00 0.00 54 1010.1
20260905005132 92 84 0.0 2.0 0.00 0.00 0.00 53 1010.3
20260905004632 93 86 2.0 5.0 0.00 0.00 0.00 51 1010.2
20260905004127 93 80 1.0 2.0 0.00 0.00 0.00 47 1010.3
20260905003622 93 85 0.0 1.0 0.00 0.00 0.00 47 1009.9
20260905003118 94 94 3.0 5.0 0.00 0.00 0.00 46 1010.0
20260905002613 94 83 1.0 1.0 0.00 0.00 0.00 47 1010.3
20260905002108 94 73 0.0 0.0 0.00 0.00 0.00 47 1010.0
20260905001603 94 96 1.0 1.0 0.00 0.00 0.00 47 1009.7
20260905001057 94 68 2.0 6.0 0.00 0.00 0.00 47 1009.9
20260905000552 94 89 0.0 1.0 0.00 0.00 0.00 47 1010.0
20260905000048 95 90 1.0 5.0 0.00 0.00 0.00 46 1009.9
20260904235543 95 82 0.0 3.0 0.00 0.00 0.00 47 1009.8
20260904235043 95 99 0.0 2.0 0.00 0.00 0.00 47 1010.0
20260904234543 95 77 0.0 2.0 0.00 0.00 0.00 48 1009.7
20260904234039 95 64 2.0 3.0 0.00 0.00 0.00 47 1009.8
20260904233533 95 134 3.0 6.0 0.00 0.00 0.00 47 1009.9
20260904233030 95 99 1.0 6.0 0.00 0.00 0.00 48 1010.0
20260904232526 95 92 1.0 3.0 0.00 0.00 0.00 48 1009.9
20260904232022 95 97 2.0 2.0 0.00 0.00 0.00 49 1009.9
20260904231518 95 74 3.0 5.0 0.00 0.00 0.00 48 1009.9
20260904231013 95 101 2.0 2.0 0.00 0.00 0.00 48 1009.9
20260904230512 95 69 3.0 5.0 0.00 0.00 0.00 49 1009.8
20260904230008 95 138 3.0 5.0 0.00 0.00 0.00 49 1009.9
20260904225505 96 88 2.0 5.0 0.00 0.00 0.00 47 1009.7
20260904225004 96 98 1.0 6.0 0.00 0.00 0.00 47 1009.9
20260904224500 95 68 3.0 5.0 0.00 0.00 0.00 48 1009.7
20260904224000 96 88 1.0 3.0 0.00 0.00 0.00 48 1010.0
20260904223459 96 95 5.0 7.0 0.00 0.00 0.00 47 1009.9
20260904222955 96 74 3.0 3.0 0.00 0.00 0.00 47 1010.0
20260904222450 98 81 1.0 5.0 0.00 0.00 0.00 46 1010.0
20260904221944 99 68 1.0 3.0 0.00 0.00 0.00 44 1010.1
20260904221439 99 86 0.0 2.0 0.00 0.00 0.00 45 1010.0
20260904220934 98 101 2.0 5.0 0.00 0.00 0.00 44 1009.9
20260904220428 98 105 2.0 6.0 0.00 0.00 0.00 44 1010.1
20260904215923 99 73 0.0 1.0 0.00 0.00 0.00 43 1009.9
20260904215418 98 82 0.0 5.0 0.00 0.00 0.00 44 1009.9
20260904214914 99 74 0.0 3.0 0.00 0.00 0.00 42 1010.2
20260904214410 99 101 1.0 1.0 0.00 0.00 0.00 43 1010.3
20260904213908 98 128 1.0 3.0 0.00 0.00 0.00 44 1010.2
20260904213403 98 176 1.0 8.0 0.00 0.00 0.00 44 1010.4
20260904212859 98 89 3.0 5.0 0.00 0.00 0.00 43 1010.5
20260904212358 98 78 0.0 2.0 0.00 0.00 0.00 44 1010.3